GW2291 Weather Reports


time (UTC)temp
F
wind
direction
speed
knots
gust
knots
rain 1hr
in
rain 24hr
in
rain mn
in
humidity
%
barometer
mb
20260505025036 69 225 0.9 0.9 0.00 0.00 0.00 62 1010.3
20260505024022 70 225 0.9 0.9 0.00 0.00 0.00 62 1010.1
20260505023515 70 113 0.0 0.0 0.00 0.00 0.00 60 1009.9
20260505023012 71 0 0.0 0.0 0.00 0.00 0.00 60 1009.9
20260505021943 71 90 0.9 0.9 0.00 0.00 0.00 59 1009.7
20260505021435 72 180 0.9 0.9 0.00 0.00 0.00 57 1009.7
20260505020925 72 135 1.7 1.7 0.00 0.00 0.00 57 1009.7
20260505020420 73 225 0.9 0.9 0.00 0.00 0.00 58 1009.7
20260505015411 73 225 0.9 0.9 0.00 0.00 0.00 57 1009.7
20260505014845 73 203 0.0 0.0 0.00 0.00 0.00 56 1009.9
20260505014340 74 248 0.0 0.0 0.00 0.00 0.00 55 1009.9
20260505013325 74 45 1.7 1.7 0.00 0.00 0.00 53 1010.0
20260505012315 75 180 0.0 0.0 0.00 0.00 0.00 54 1010.0
20260505011245 75 315 0.0 0.0 0.00 0.00 0.00 54 1010.0
20260505010743 76 68 0.9 0.9 0.00 0.00 0.00 52 1010.0
20260505005725 76 315 1.7 1.7 0.00 0.00 0.00 52 1009.9
20260505004715 77 23 1.7 1.7 0.00 0.00 0.00 50 1009.7
20260505004210 77 23 2.6 2.6 0.00 0.00 0.00 50 1009.7
20260505003645 77 338 1.7 1.7 0.00 0.00 0.00 50 1009.7
20260505002635 77 23 0.9 0.9 0.00 0.00 0.00 50 1009.7
20260505002125 77 23 1.7 1.7 0.00 0.00 0.00 49 1009.5
20260505000610 77 45 0.9 0.9 0.00 0.00 0.00 52 1009.5
20260504235555 77 23 1.7 1.7 0.00 0.00 0.00 50 1009.5
20260504235050 78 113 1.7 1.7 0.00 0.00 0.00 52 1009.5
20260504234545 78 180 0.0 0.0 0.00 0.00 0.00 51 1009.3
20260504234040 78 113 2.6 2.6 0.00 0.00 0.00 52 1009.3
20260504233026 78 203 2.6 2.6 0.00 0.00 0.00 51 1009.5
20260504232520 78 248 0.9 0.9 0.00 0.00 0.00 52 1009.5
20260504232017 78 203 1.7 1.7 0.00 0.00 0.00 51 1009.5
20260504231510 79 270 1.7 1.7 0.00 0.00 0.00 51 1009.5
20260504230455 79 338 0.9 0.9 0.00 0.00 0.00 49 1009.7
20260504224943 81 68 1.7 1.7 0.00 0.00 0.00 47 1009.7
20260504223420 82 248 1.7 1.7 0.00 0.00 0.00 48 1010.3
20260504222411 83 23 0.0 0.0 0.00 0.00 0.00 44 1010.4
20260504220854 82 315 0.9 0.9 0.00 0.00 0.00 48 1010.6
20260504205407 80 225 0.9 0.9 0.00 0.00 0.00 54 1011.5
20260504204910 82 68 0.0 0.0 0.00 0.00 0.00 51 1011.5
20260504202409 79 203 0.9 0.9 0.00 0.00 0.00 53 1012.0
20260504201905 81 45 1.7 1.7 0.00 0.00 0.00 53 1012.0
20260504201354 80 113 1.7 1.7 0.00 0.00 0.00 53 1012.0
20260504200344 80 135 0.9 0.9 0.00 0.00 0.00 54 1012.0
20260504194824 80 158 1.7 1.7 0.00 0.00 0.00 54 1012.3
20260504194319 79 68 1.7 1.7 0.00 0.00 0.00 55 1012.3
20260504193814 79 113 0.9 0.9 0.00 0.00 0.00 55 1012.3
20260504191750 77 158 0.9 0.9 0.00 0.00 0.00 57 1012.7
20260504190739 77 113 1.7 1.7 0.00 0.00 0.00 58 1012.9
20260504190234 76 113 0.9 0.9 0.00 0.00 0.00 59 1012.9
20260504185724 77 45 0.9 0.9 0.00 0.00 0.00 58 1012.9
20260504185219 75 338 0.0 0.0 0.00 0.00 0.00 61 1012.9
20260504184715 77 203 0.9 0.9 0.00 0.00 0.00 60 1012.9
20260504184209 76 180 1.7 1.7 0.00 0.00 0.00 58 1012.9
20260504183704 75 338 0.0 0.0 0.00 0.00 0.00 63 1013.1
20260504183154 75 338 1.7 1.7 0.00 0.00 0.00 61 1013.1
20260504182649 75 158 1.7 1.7 0.00 0.00 0.00 62 1013.1
20260504182144 73 270 1.7 1.7 0.00 0.00 0.00 64 1013.2
20260504181639 75 45 1.7 1.7 0.00 0.00 0.00 60 1013.2
20260504180624 73 270 0.9 0.9 0.00 0.00 0.00 63 1013.2
20260504180119 75 45 1.7 1.7 0.00 0.00 0.00 63 1013.2
20260504175109 73 23 1.7 1.7 0.00 0.00 0.00 66 1013.2
20260504174559 72 113 0.9 0.9 0.00 0.00 0.00 65 1013.4
20260504174054 72 338 0.9 0.9 0.00 0.00 0.00 65 1013.4
20260504173551 71 270 1.7 1.7 0.00 0.00 0.00 67 1013.4
20260504173045 71 135 0.9 0.9 0.00 0.00 0.00 69 1013.4
20260504031903 62 338 0.0 0.0 0.00 0.00 0.00 80 1010.5
20260504030848 63 315 0.0 0.0 0.00 0.00 0.00 79 1010.6